Martinsburg, WV

7:54 PM EDT on June 25, 2017 (GMT -0400)
Eastern W Va Regional-Shepherd

Weather History for KMRB - August, 2014

Change the Weather History Date:

Friday, August 29, 2014

  Actual Average Record
Temperature  
Mean Temperature 66 °F 71 °F  
Max Temperature 80 °F 82 °F 99 °F (1973)
Min Temperature 51 °F 60 °F 40 °F (1982)
Degree Days  
Heating Degree Days 0 0  
Month to date heating degree days 0 0  
Since 1 June heating degree days 5 25  
Since 1 July heating degree days 3 1  
Cooling Degree Days 1 6  
Month to date cooling degree days 189 236  
Year to date cooling degree days 807 779  
Since 1 June cooling degree days 726 722  
Growing Degree Days 16 (Base 50)    
Moisture  
Dew Point 51 °F    
Average Humidity 61    
Maximum Humidity 83    
Minimum Humidity 38    
Precipitation  
Precipitation 0.00 in 0.10 in 1.12 in (1988)
Month to date precipitation 2.23 2.89  
Year to date precipitation 24.47 26.05  
Sea Level Pressure  
Sea Level Pressure 30.17 in    
Wind  
Wind Speed 3 mph (East)    
Max Wind Speed 9 mph    
Max Gust Speed 20 mph    
Visibility 10 miles    
Events      
T = Trace of Precipitation, MM = Missing Value Source: NWS Daily Summary

Daily Weather History Graph

Daily Weather History Graph

Search for Another Location

Airport or City:

Trip Planner

Search our weather history database for the weather conditions in past years. The results will help you decide how hot, cold, wet, or windy it might be!

Date:

Astronomy

Aug. 29, 2014 Rise Set
Actual Time 6:37 AM EDT 7:47 PM EDT
Civil Twilight 6:09 AM EDT 8:15 PM EDT
Nautical Twilight 5:36 AM EDT 8:48 PM EDT
Astronomical Twilight 5:02 AM EDT 9:22 PM EDT
Moon 10:23 AM EDT (8/29) 9:45 PM EDT (8/29)
Length of Visible Light 14h 05m
Length of Day
13h 09m
Waxing Crescent, 15% of the Moon is Illuminated
Aug 29
Waxing Crescent
Sep 2
First Quarter
Sep 8
Full
Sep 15
Last Quarter
Sep 24
New

Hourly Weather History & Observations

Time (EDT) Temp. Dew Point Humidity Pressure Visibility Wind Dir Wind Speed Gust Speed Precip Events Conditions
12:53 AM 60.1 °F 50.0 °F 69% 30.12 in 10.0 mi Calm Calm - N/A   Clear
1:53 AM 63.0 °F 50.0 °F 63% 30.12 in 10.0 mi NE 4.6 mph - N/A   Clear
2:53 AM 59.0 °F 50.0 °F 72% 30.13 in 10.0 mi North 4.6 mph - N/A   Clear
3:53 AM 59.0 °F 48.9 °F 69% 30.15 in 10.0 mi Calm Calm - N/A   Clear
4:53 AM 55.0 °F 48.9 °F 80% 30.16 in 10.0 mi Calm Calm - N/A   Clear
5:53 AM 53.1 °F 48.0 °F 83% 30.17 in 10.0 mi Calm Calm - N/A   Clear
6:53 AM 53.1 °F 48.0 °F 83% 30.19 in 10.0 mi Calm Calm - N/A   Clear
7:53 AM 57.0 °F 51.1 °F 81% 30.21 in 10.0 mi Calm Calm - N/A   Clear
8:53 AM 63.0 °F 51.1 °F 65% 30.22 in 10.0 mi Calm Calm - N/A   Clear
9:53 AM 66.9 °F 50.0 °F 54% 30.22 in 10.0 mi Calm Calm - N/A   Clear
11:53 AM 72.0 °F 46.9 °F 41% 30.22 in 10.0 mi Variable 3.5 mph - N/A   Clear
12:53 PM 75.0 °F 48.9 °F 40% 30.19 in 10.0 mi Variable 4.6 mph - N/A   Clear
1:53 PM 77.0 °F 51.1 °F 40% 30.18 in 10.0 mi ENE 9.2 mph - N/A   Clear
2:53 PM 77.0 °F 51.1 °F 40% 30.16 in 10.0 mi Variable 3.5 mph - N/A   Clear
4:53 PM 78.1 °F 51.1 °F 39% 30.15 in 10.0 mi SE 8.1 mph - N/A   Clear
5:53 PM 77.0 °F 54.0 °F 45% 30.15 in 10.0 mi SSE 4.6 mph - N/A   Clear
6:53 PM 75.9 °F 55.0 °F 48% 30.15 in 10.0 mi ESE 4.6 mph - N/A   Clear
7:53 PM 72.0 °F 55.9 °F 57% 30.16 in 10.0 mi ESE 3.5 mph - N/A   Clear
8:53 PM 66.0 °F 55.9 °F 70% 30.17 in 10.0 mi Calm Calm - N/A   Clear
9:53 PM 66.9 °F 55.9 °F 68% 30.19 in 10.0 mi East 3.5 mph - N/A   Clear
11:53 PM 66.0 °F 55.9 °F 70% 30.21 in 10.0 mi Calm Calm - N/A   Overcast